| time (UTC) | temp F | wind direction | speed knots | gust knots | rain 1hr in | rain 24hr in | rain mn in | humidity % | barometer mb |
| 20260510094555 | 57 | 98 | 7.0 | 10.4 | 0.00 | 0.00 | 0.00 | 74 | 1028.8 |
| 20260510093053 | 58 | 79 | 7.0 | 11.3 | 0.00 | 0.00 | 0.00 | 73 | 1028.6 |
| 20260510091551 | 58 | 97 | 8.7 | 13.0 | 0.00 | 0.00 | 0.00 | 71 | 1028.3 |
| 20260510090043 | 58 | 101 | 8.7 | 11.3 | 0.00 | 0.00 | 0.00 | 68 | 1028.1 |
| 20260510084541 | 57 | 108 | 5.2 | 10.4 | 0.00 | 0.00 | 0.00 | 66 | 1027.8 |
| 20260510083035 | 58 | 111 | 4.3 | 6.1 | 0.00 | 0.00 | 0.00 | 64 | 1027.6 |
| 20260510081532 | 59 | 104 | 4.3 | 7.0 | 0.00 | 0.00 | 0.00 | 63 | 1027.3 |
| 20260510080031 | 60 | 110 | 5.2 | 7.8 | 0.00 | 0.00 | 0.00 | 62 | 1027.1 |
| 20260510074522 | 61 | 114 | 5.2 | 8.7 | 0.00 | 0.00 | 0.00 | 60 | 1026.8 |
| 20260510073022 | 62 | 101 | 7.0 | 9.6 | 0.00 | 0.00 | 0.00 | 58 | 1026.5 |
| 20260510071513 | 63 | 100 | 6.1 | 10.4 | 0.00 | 0.00 | 0.00 | 56 | 1026.2 |
| 20260510070009 | 65 | 117 | 7.8 | 12.2 | 0.00 | 0.00 | 0.00 | 54 | 1026.1 |
| 20260510064522 | 66 | 113 | 5.2 | 10.4 | 0.00 | 0.00 | 0.00 | 53 | 1025.9 |
| 20260510063006 | 67 | 95 | 9.6 | 12.2 | 0.00 | 0.00 | 0.00 | 53 | 1025.8 |
| 20260510061505 | 68 | 123 | 6.1 | 11.3 | 0.00 | 0.00 | 0.00 | 52 | 1025.7 |
| 20260510060100 | 68 | 116 | 7.8 | 11.3 | 0.00 | 0.00 | 0.00 | 52 | 1025.5 |
| 20260510054605 | 68 | 141 | 5.2 | 11.3 | 0.00 | 0.00 | 0.00 | 52 | 1025.5 |
| 20260510053058 | 68 | 122 | 5.2 | 10.4 | 0.00 | 0.00 | 0.00 | 52 | 1025.4 |
| 20260510051604 | 68 | 133 | 7.0 | 11.3 | 0.00 | 0.00 | 0.00 | 52 | 1025.3 |
| 20260510050054 | 68 | 180 | 5.2 | 13.0 | 0.00 | 0.00 | 0.00 | 52 | 1025.2 |
| 20260510044555 | 69 | 150 | 3.5 | 11.3 | 0.00 | 0.00 | 0.00 | 52 | 1025.1 |
| 20260510043053 | 69 | 99 | 6.1 | 11.3 | 0.00 | 0.00 | 0.00 | 51 | 1025.1 |
| 20260510041551 | 68 | 121 | 7.0 | 13.0 | 0.00 | 0.00 | 0.00 | 51 | 1025.0 |
| 20260510040047 | 68 | 127 | 3.5 | 10.4 | 0.00 | 0.00 | 0.00 | 51 | 1025.0 |
| 20260510034606 | 68 | 108 | 3.5 | 12.2 | 0.00 | 0.00 | 0.00 | 51 | 1025.0 |
| 20260510033048 | 68 | 150 | 1.7 | 7.8 | 0.00 | 0.00 | 0.00 | 51 | 1025.1 |
| 20260510031543 | 68 | 108 | 6.1 | 8.7 | 0.00 | 0.00 | 0.00 | 52 | 1025.2 |
| 20260510030037 | 68 | 150 | 5.2 | 8.7 | 0.00 | 0.00 | 0.00 | 52 | 1025.5 |
| 20260510024535 | 67 | 191 | 2.6 | 6.1 | 0.00 | 0.00 | 0.00 | 53 | 1025.7 |
| 20260510023032 | 66 | 180 | 2.6 | 7.8 | 0.00 | 0.00 | 0.00 | 54 | 1026.0 |
| 20260510021533 | 66 | 110 | 3.5 | 8.7 | 0.00 | 0.00 | 0.00 | 54 | 1026.2 |
| 20260510020058 | 65 | 133 | 3.5 | 7.8 | 0.00 | 0.00 | 0.00 | 55 | 1026.5 |
| 20260510014601 | 65 | 112 | 5.2 | 8.7 | 0.00 | 0.00 | 0.00 | 56 | 1026.8 |
| 20260510013023 | 64 | 38 | 0.0 | 7.0 | 0.00 | 0.00 | 0.00 | 58 | 1027.0 |
| 20260510011521 | 63 | 214 | 0.9 | 7.0 | 0.00 | 0.00 | 0.00 | 60 | 1027.2 |
| 20260510010013 | 62 | 126 | 4.3 | 7.8 | 0.00 | 0.00 | 0.00 | 63 | 1027.3 |
| 20260510004510 | 60 | 145 | 0.0 | 7.0 | 0.00 | 0.00 | 0.00 | 66 | 1027.6 |
| 20260510003006 | 59 | 194 | 0.9 | 2.6 | 0.00 | 0.00 | 0.00 | 68 | 1027.8 |
| 20260510001502 | 56 | 114 | 0.9 | 4.3 | 0.00 | 0.00 | 0.00 | 72 | 1027.9 |
| 20260510000116 | 55 | 122 | 0.9 | 4.3 | 0.00 | 0.00 | 0.00 | 74 | 1027.9 |
| 20260509234550 | 53 | 112 | 0.0 | 2.6 | 0.00 | 0.00 | 0.00 | 79 | 1028.0 |
| 20260509233044 | 50 | 4 | 0.0 | 0.9 | 0.00 | 0.00 | 0.00 | 86 | 1028.0 |
| 20260509231543 | 48 | 4 | 0.0 | 0.0 | 0.00 | 0.00 | 0.00 | 91 | 1028.0 |
| 20260509230036 | 45 | 4 | 0.0 | 1.7 | 0.00 | 0.00 | 0.00 | 92 | 1028.0 |
| 20260509224533 | 43 | 5 | 0.0 | 0.9 | 0.00 | 0.00 | 0.00 | 93 | 1028.1 |
| 20260509223030 | 41 | 5 | 0.0 | 0.9 | 0.00 | 0.00 | 0.00 | 93 | 1028.1 |
| 20260509221525 | 40 | 5 | 0.0 | 0.0 | 0.00 | 0.00 | 0.00 | 93 | 1027.9 |
| 20260509220124 | 39 | 5 | 0.0 | 0.0 | 0.00 | 0.00 | 0.00 | 93 | 1027.8 |
| 20260509214559 | 38 | 6 | 0.0 | 0.0 | 0.00 | 0.00 | 0.00 | 93 | 1027.7 |
| 20260509213044 | 36 | 6 | 0.0 | 0.0 | 0.00 | 0.00 | 0.00 | 93 | 1027.6 |
| 20260509211536 | 34 | 6 | 0.0 | 0.0 | 0.00 | 0.00 | 0.00 | 90 | 1027.4 |
| 20260509210032 | 33 | 6 | 0.0 | 0.0 | 0.00 | 0.00 | 0.00 | 90 | 1027.3 |
| 20260509204529 | 32 | 6 | 0.0 | 0.0 | 0.00 | 0.00 | 0.00 | 89 | 1027.2 |
| 20260509203035 | 33 | 6 | 0.0 | 0.0 | 0.00 | 0.00 | 0.00 | 89 | 1027.0 |
| 20260509201555 | 33 | 6 | 0.0 | 0.0 | 0.00 | 0.00 | 0.00 | 90 | 1026.8 |
| 20260509200107 | 32 | 6 | 0.0 | 0.0 | 0.00 | 0.00 | 0.00 | 89 | 1026.7 |
| 20260509194522 | 33 | 6 | 0.0 | 0.0 | 0.00 | 0.00 | 0.00 | 89 | 1026.3 |
| 20260509193020 | 34 | 6 | 0.0 | 0.0 | 0.00 | 0.00 | 0.00 | 89 | 1025.9 |
| 20260509191510 | 33 | 6 | 0.0 | 1.7 | 0.00 | 0.00 | 0.00 | 88 | 1025.8 |
| 20260509190008 | 33 | 8 | 0.0 | 0.9 | 0.00 | 0.00 | 0.00 | 88 | 1025.6 |
| 20260509184507 | 34 | 8 | 0.0 | 0.0 | 0.00 | 0.00 | 0.00 | 87 | 1025.5 |
| 20260509183003 | 34 | 8 | 0.0 | 0.0 | 0.00 | 0.00 | 0.00 | 88 | 1025.4 |
| 20260509181531 | 35 | 8 | 0.0 | 0.0 | 0.00 | 0.00 | 0.00 | 88 | 1025.2 |
| 20260509180027 | 35 | 8 | 0.0 | 0.0 | 0.00 | 0.00 | 0.00 | 88 | 1025.1 |
| 20260509174537 | 35 | 8 | 0.0 | 0.0 | 0.00 | 0.00 | 0.00 | 88 | 1025.0 |
| 20260509173019 | 36 | 8 | 0.0 | 0.0 | 0.00 | 0.00 | 0.00 | 88 | 1025.0 |
| 20260509171516 | 36 | 8 | 0.0 | 0.0 | 0.00 | 0.00 | 0.00 | 88 | 1025.1 |
| 20260509170016 | 36 | 8 | 0.0 | 0.0 | 0.00 | 0.00 | 0.00 | 87 | 1025.1 |
| 20260509164514 | 36 | 8 | 0.0 | 0.0 | 0.00 | 0.00 | 0.00 | 87 | 1025.0 |
| 20260509163013 | 36 | 8 | 0.0 | 0.0 | 0.00 | 0.00 | 0.00 | 87 | 1025.0 |
| 20260509161506 | 36 | 8 | 0.0 | 0.0 | 0.00 | 0.00 | 0.00 | 85 | 1025.2 |
| 20260509160004 | 37 | 8 | 0.0 | 0.0 | 0.00 | 0.00 | 0.00 | 86 | 1025.1 |
| 20260509154502 | 38 | 8 | 0.0 | 0.0 | 0.00 | 0.00 | 0.00 | 86 | 1025.2 |
| 20260509153000 | 38 | 8 | 0.0 | 0.0 | 0.00 | 0.00 | 0.00 | 86 | 1025.1 |
| 20260509151559 | 37 | 8 | 0.0 | 0.0 | 0.00 | 0.00 | 0.00 | 85 | 1025.1 |
| 20260509150052 | 38 | 8 | 0.0 | 0.0 | 0.00 | 0.00 | 0.00 | 84 | 1025.0 |
| 20260509144549 | 38 | 8 | 0.0 | 0.0 | 0.00 | 0.00 | 0.00 | 84 | 1025.0 |
| 20260509143056 | 38 | 8 | 0.0 | 2.6 | 0.00 | 0.00 | 0.00 | 84 | 1025.0 |
| 20260509141541 | 39 | 39 | 0.0 | 0.0 | 0.00 | 0.00 | 0.00 | 83 | 1025.0 |
| 20260509140046 | 40 | 55 | 0.0 | 0.0 | 0.00 | 0.00 | 0.00 | 83 | 1024.9 |
| 20260509134536 | 40 | 55 | 0.0 | 0.0 | 0.00 | 0.00 | 0.00 | 82 | 1024.9 |
| 20260509133034 | 41 | 55 | 0.0 | 0.0 | 0.00 | 0.00 | 0.00 | 81 | 1025.0 |
| 20260509131502 | 41 | 55 | 0.0 | 0.0 | 0.00 | 0.00 | 0.00 | 81 | 1024.8 |
| 20260509130101 | 41 | 55 | 0.0 | 0.0 | 0.00 | 0.00 | 0.00 | 80 | 1024.8 |
| 20260509124554 | 42 | 55 | 0.0 | 0.0 | 0.00 | 0.00 | 0.00 | 80 | 1024.7 |
| 20260509123114 | 42 | 55 | 0.0 | 0.0 | 0.00 | 0.00 | 0.00 | 79 | 1024.5 |
| 20260509121547 | 42 | 55 | 0.0 | 0.0 | 0.00 | 0.00 | 0.00 | 77 | 1024.6 |
| 20260509120045 | 44 | 54 | 0.0 | 0.0 | 0.00 | 0.00 | 0.00 | 76 | 1024.5 |
| 20260509114537 | 45 | 54 | 0.0 | 0.0 | 0.00 | 0.00 | 0.00 | 76 | 1024.3 |
| 20260509113037 | 44 | 59 | 0.0 | 0.0 | 0.00 | 0.00 | 0.00 | 76 | 1024.5 |
| 20260509111533 | 45 | 64 | 0.0 | 0.0 | 0.00 | 0.00 | 0.00 | 75 | 1024.4 |
| 20260509110030 | 45 | 63 | 0.0 | 0.9 | 0.00 | 0.00 | 0.00 | 74 | 1024.3 |
| 20260509104558 | 46 | 60 | 0.9 | 2.6 | 0.00 | 0.00 | 0.00 | 74 | 1024.2 |
| 20260509103102 | 46 | 79 | 0.0 | 1.7 | 0.00 | 0.00 | 0.00 | 72 | 1024.2 |
| 20260509101548 | 47 | 79 | 0.9 | 2.6 | 0.00 | 0.00 | 0.00 | 70 | 1024.0 |
| 20260509100050 | 48 | 78 | 1.7 | 3.5 | 0.00 | 0.00 | 0.00 | 70 | 1023.9 |